STARLINK-32763 (62750 NORAD) Tracking and Keplerian Element Data

This shows tracking and keplerian element data for the satellite.

Feedback or suggestion? Click here.




ElementValue
Catalog62750
NameSTARLINK-32763
Epoch Orbit5108
Epoch Day354.07142929
Epoch Year2025
RAAN243.787
Inclination42.9985
Eccentricity0.0001183
Argument of Perigee255.5987
Mean Anonmoly104.4733
Mean Motion15.27581405
Decay Rate0.00015036
L11 62750U 25014R 25354.07142929 .00015036 00000+0 55476-3 0 9999
L22 62750 42.9985 243.7870 0001183 255.5987 104.4733 15.27581405 51088



Live tracking and technical data element details for STARLINK-32763 (NORAD 62750). STARLINK-32763 can be tracked NOW for your location showing map with azimuth and elevation plus other details from your city location.







IsCatalogInMostPopularTable: catalog: 62750, numindb: 219
Update: records affected: 1



GetName: 62750 STARLINK-32763

Hit Count: updated at: Fri, 16 Jan 2026 09:43:28 GMT